ISS
1 25544U 98067A 10126.72202001 .00023462 00000-0 16668-3 0 1038
2 25544 051.6446 083.3867 0009651 282.3663 141.3713 15.73727181656946
CO-58
1 28895U 05043F 10125.62441332 .00000258 00000-0 63296-4 0 5753
2 28895 098.0209 011.4979 0019001 060.5741 299.7342 14.59885243240772
FALCON
1 30776U 07006E 10126.78225945 .00000791 00000-0 59652-4 0 8210
2 30776 035.4343 295.6670 0002028 233.1826 126.8709 15.03637892173827
MAST
1 31126U 07012K 10125.61238337 .00000057 00000-0 23414-4 0 8578
2 31126 097.9410 169.8167 0094545 359.2665 000.8380 14.53581314161873
CAPE1
1 31130U 07012P 10125.82952505 .00000250 00000-0 68151-4 0 08792
2 31130 097.9429 167.5162 0103088 006.3724 353.8737 14.52171289161510
COMPASS
1 32787U 08021E 10126.30421048 .00000772 00000-0 10415-3 0 6649
2 32787 097.8962 191.6316 0017021 063.7209 296.5748 14.81853573109292
AAUSAT2
1 32788U 08021F 10126.17625239 .00000811 00000-0 10872-3 0 6576
2 32788 097.8961 191.6240 0016631 064.9482 295.3421 14.81994910109285
DO-64
1 32789U 08021G 10125.91891584 .00001145 00000-0 15028-3 0 6733
2 32789 097.9030 191.7962 0016774 065.0172 295.2760 14.82115909109247
CO-66
1 32791U 08021J 10126.18503621 .00000364 00000-0 52930-4 0 6554
2 32791 097.8972 191.5336 0017370 061.8040 298.4888 14.81641738109236
RS-30
1 32953U 08025A 10126.75772503 .00000010 00000-0 00000 0 0 6664
2 32953 082.5022 055.4373 0017926 189.2097 170.8657 12.43005032 88595
TACSAT-3
1 35001U 09028A 10126.39347033 .00009430 00000-0 22359-3 0 2803
2 35001 040.4527 105.0961 0020898 048.5049 311.7555 15.41445208 54181
PHARMSAT
1 35002U 09028B 10125.32573709 .00009211 00000-0 21409-3 0 2641
2 35002 040.4682 109.6656 0024043 044.9242 315.3521 15.41993201 54034
HAWKSAT1
1 35003U 09028C 10126.35050343 .00018237 00000-0 38129-3 0 2825
2 35003 040.4562 099.4670 0021563 063.8014 296.5013 15.44755201 54243
CP6
1 35004U 09028D 10126.23908027 .00021758 00000-0 44323-3 0 2773
2 35004 040.4603 099.5017 0020755 065.0602 295.2332 15.45453668 54226
AEROCUB3
1 35005U 09028E 10126.15548826 .00054107 00000-0 96371-3 0 3025
2 35005 040.4684 099.2052 0016504 077.6131 282.6341 15.49079268 54229
DRAGNSAT
1 35690U 09038B 10076.22711312 .05715194 12509-4 31481-3 0 3162
2 35690 051.6170 315.4586 0004999 310.9891 057.3269 16.42150010 36561
POLLUX
1 35693U 09038E 10087.99866888 .23496735 12787-4 17715-3 0 3529
2 35693 051.6099 254.5746 0006270 294.4866 097.5899 16.52338462 38395
CASTOR
1 35694U 09038F 10126.65924850 .00077551 13688-4 18659-3 0 3515
2 35694 051.6365 061.5427 0004772 064.5909 295.5591 15.96527898 44412
METEOR-M
1 35865U 09049A 10126.68536990 .00000176 00000-0 10000-3 0 2682
2 35865 098.7608 180.7736 0003094 109.9901 250.1581 14.21830012 32823
RS-38
1 35869U 09049E 10126.80203282 .00000177 00000-0 10000-3 0 2754
2 35869 098.7605 180.9181 0005369 118.7914 241.3772 14.21980863 32845
